Location: Newark
(46.7000°N, 60.6000°W)
Time: 08:55:51
(UTC+00:00)

Vanguard 3 - Pass Details

Date: 30 October 2020
Orbit: 508 x 3262 km, 33.3° (Epoch: 29 November)

Event Time Altitude Azimuth Distance (km) Brightness Sun altitude
Rises 06:26:37 0° 187° (S) 5,577 - -43.2°
Reaches altitude 10° 06:31:34 10° 171° (S) 5,037 - -42.4°
Exits shadow 06:32:08 11° 169° (S) 4,994 11.0 -42.4°
Maximum altitude 06:41:08 20° 133° (SE) 4,943 11.2 -41.0°
Drops below altitude 10° 06:52:30 10° 96° (E) 6,155 12.1 -39.3°
Sets 06:59:31 0° 82° (E) 7,230 12.9 -38.2°
